This is the latest recevied weather packets stored in our database for station/object F4GQK-13. If no packets are shown the sender has not sent any weather packets the latest 10 day(s).
| Time | Temp. | Humidity | Pressure | Rain* | Wind** | Luminosity | Snow |
|---|---|---|---|---|---|---|---|
| 1777461305 | 21.67° C | 50% | 1018.1 hPa | 0 mm | - | 723 W/m² | - |
| 1777461006 | 21.11° C | 50% | 1018 hPa | 0 mm | - | 678 W/m² | - |
| 1777460705 | 21.11° C | 50% | 1018.2 hPa | 0 mm | - | 644 W/m² | - |
| 1777460405 | 20.56° C | 51% | 1018.1 hPa | 0 mm | - | 686 W/m² | - |
| 1777460105 | 20.56° C | 51% | 1018.1 hPa | 0 mm | - | 677 W/m² | - |
| 1777459805 | 20.56° C | 51% | 1018.1 hPa | 0 mm | - | 641 W/m² | - |
| 1777459505 | 20.56° C | 53% | 1018 hPa | 0 mm | - | 689 W/m² | - |
| 1777459206 | 20.56° C | 53% | 1018.1 hPa | 0 mm | - | 689 W/m² | - |
| 1777458905 | 20° C | 54% | 1018.2 hPa | 0 mm | - | 646 W/m² | - |
| 1777458604 | 20° C | 55% | 1018.2 hPa | 0 mm | - | 662 W/m² | - |
| 1777458304 | 20.56° C | 55% | 1018.2 hPa | 0 mm | - | 621 W/m² | - |
| 1777458005 | 20° C | 56% | 1018 hPa | 0 mm | - | 631 W/m² | - |
| 1777457704 | 19.44° C | 55% | 1018.1 hPa | 0 mm | - | 596 W/m² | - |
| 1777457406 | 19.44° C | 55% | 1018.2 hPa | 0 mm | - | 537 W/m² | - |
| 1777457105 | 18.89° C | 54% | 1018 hPa | 0 mm | - | 569 W/m² | - |
| 1777456805 | 18.89° C | 54% | 1018.3 hPa | 0 mm | - | 487 W/m² | - |
| 1777456506 | 18.89° C | 55% | 1018.4 hPa | 0 mm | - | 546 W/m² | - |
| 1777456204 | 18.89° C | 56% | 1018.3 hPa | 0 mm | - | 626 W/m² | - |
| 1777455906 | 18.33° C | 56% | 1018.2 hPa | 0 mm | - | 524 W/m² | - |
| 1777455604 | 17.78° C | 57% | 1018.3 hPa | 0 mm | - | 533 W/m² | - |
| 1777455304 | 17.78° C | 56% | 1018.4 hPa | 0 mm | - | 503 W/m² | - |
| 1777455005 | 17.78° C | 57% | 1018.4 hPa | 0 mm | - | 517 W/m² | - |
| 1777454705 | 17.78° C | 56% | 1018.5 hPa | 0 mm | - | 560 W/m² | - |
| 1777454405 | 18.33° C | 57% | 1018.4 hPa | 0 mm | - | 547 W/m² | - |
| 1777454105 | 17.22° C | 60% | 1018.5 hPa | 0 mm | - | 546 W/m² | - |
* Rain latest hour (hover to see other rain measurements)
** Current wind speed in m/s (hover to see current wind gust speed)